,,Stat6,,Stat2,,Stat8,,Stat9,,Stat10,,Wind1,,Wind1,
time,status,PA1M_AVG,status,PR1M_SUM,status,RH1M_AVG,status,SR1M_AVG,status,TA1M_AVG,status,W1dAve1m,status,W1sAve1m,
2004-10-06, 00:00:00,VALID,921.078,VALID,0,VALID,100,VALID,0.0849042,VALID,19.0677,VALID,130,VALID,0.746466,
2004-10-06, 00:01:00,VALID,921.06,VALID,0,VALID,100,VALID,0.0509425,VALID,19.0617,VALID,119,VALID,0.588246,
2004-10-06, 00:02:00,VALID,921.047,VALID,0,VALID,100,VALID,0.0509425,VALID,19.049,VALID,142,VALID,0.699898,
2004-10-06, 00:03:00,VALID,921.05,VALID,0,VALID,100,VALID,0.0679233,VALID,19.023,VALID,136,VALID,0.81436,
2004-10-06, 00:04:00,VALID,921.044,VALID,0,VALID,100,VALID,0.0509425,VALID,19.013,VALID,138,VALID,0.992006,
2004-10-06, 00:05:00,VALID,921.049,VALID,0,VALID,100,VALID,0.0509425,VALID,18.9939,VALID,140,VALID,1.05431,
2004-10-06, 00:06:00,VALID,921.054,VALID,0,VALID,100,VALID,0.0509425,VALID,18.9778,VALID,121,VALID,0.828869,
2004-10-06, 00:07:00,VALID,921.037,VALID,0,VALID,100,VALID,0.0169808,VALID,18.9616,VALID,141,VALID,1.13449,
2004-10-06, 00:08:00,VALID,921.036,VALID,0,VALID,100,VALID,0.0169808,VALID,18.9649,VALID,143,VALID,0.540587,
2004-10-06, 00:09:00,VALID,921.014,VALID,0,VALID,100,VALID,0.0169808,VALID,18.9619,VALID,124,VALID,0.563643,
2004-10-06, 00:10:00,VALID,920.996,VALID,0,VALID,100,VALID,0,VALID,18.9649,VALID,149,VALID,0.663086,
2004-10-06, 00:11:00,VALID,920.969,VALID,0,VALID,100,VALID,0.0169808,VALID,18.9589,VALID,122,VALID,0.663699,
2004-10-06, 00:12:00,VALID,920.951,VALID,0,VALID,100,VALID,0.0339617,VALID,18.9453,VALID,118,VALID,0.806784,
2004-10-06, 00:13:00,VALID,920.954,VALID,0,VALID,100,VALID,0.0169808,VALID,18.9365,VALID,121,VALID,0.843564,
2004-10-06, 00:14:00,VALID,920.967,VALID,0,VALID,100,VALID,0.0339617,VALID,18.9323,VALID,76,VALID,0.382254,
2004-10-06, 00:15:00,VALID,920.985,VALID,0,VALID,100,VALID,0.0339617,VALID,18.939,VALID,130,VALID,0.675686,
2004-10-06, 00:16:00,VALID,920.994,VALID,0,VALID,100,VALID,0.0509425,VALID,18.9423,VALID,145,VALID,0.754836,
2004-10-06, 00:17:00,VALID,921.008,VALID,0,VALID,100,VALID,0.0169808,VALID,18.9425,VALID,157,VALID,0.582741,
2004-10-06, 00:18:00,VALID,921.013,VALID,0,VALID,100,VALID,-0.0679233,VALID,18.9439,VALID,151,VALID,0.180043,
2004-10-06, 00:19:00,VALID,920.992,VALID,0,VALID,100,VALID,-0.101885,VALID,18.9569,VALID,150,VALID,0.102965,
2004-10-06, 00:20:00,VALID,920.97,VALID,0,VALID,100,VALID,-0.101885,VALID,18.9698,VALID,147,VALID,0.0866642,
2004-10-06, 00:21:00,VALID,920.965,VALID,0,VALID,100,VALID,-0.101885,VALID,18.9467,VALID,114,VALID,0.789435,
2004-10-06, 00:22:00,VALID,920.966,VALID,0,VALID,100,VALID,-0.0849042,VALID,18.9119,VALID,119,VALID,0.825763,
2004-10-06, 00:23:00,VALID,920.951,VALID,0,VALID,100,VALID,-0.0849042,VALID,18.8863,VALID,131,VALID,0.628646,
2004-10-06, 00:24:00,VALID,920.942,VALID,0,VALID,100,VALID,-0.101885,VALID,18.8501,VALID,82,VALID,0.919643,
2004-10-06, 00:25:00,VALID,920.934,VALID,0,VALID,100,VALID,-0.101885,VALID,18.8113,VALID,92,VALID,0.716463,
2004-10-06, 00:26:00,VALID,920.924,VALID,0,VALID,100,VALID,-0.101885,VALID,18.7828,VALID,102,VALID,0.87314,
2004-10-06, 00:27:00,VALID,920.922,VALID,0,VALID,100,VALID,-0.101885,VALID,18.7604,VALID,118,VALID,0.810785,
2004-10-06, 00:28:00,VALID,920.939,VALID,0,VALID,100,VALID,-0.101885,VALID,18.7341,VALID,102,VALID,0.779652,
2004-10-06, 00:29:00,VALID,920.928,VALID,0,VALID,100,VALID,-0.118866,VALID,18.7085,VALID,96,VALID,0.659801,
2004-10-06, 00:30:00,VALID,920.929,VALID,0,VALID,100,VALID,-0.101885,VALID,18.702,VALID,107,VALID,0.717634,
2004-10-06, 00:31:00,VALID,920.936,VALID,0,VALID,100,VALID,-0.0849042,VALID,18.7023,VALID,115,VALID,0.495898,
2004-10-06, 00:32:00,VALID,920.929,VALID,0,VALID,100,VALID,-0.101885,VALID,18.7055,VALID,87,VALID,0.364769,
2004-10-06, 00:33:00,VALID,920.932,VALID,0,VALID,100,VALID,-0.101885,VALID,18.6921,VALID,86,VALID,0.0543241,
2004-10-06, 00:34:00,VALID,920.941,VALID,0,VALID,100,VALID,-0.0509425,VALID,18.6956,VALID,86,VALID,0,
2004-10-06, 00:35:00,VALID,920.94,VALID,0,VALID,100,VALID,-0.0849042,VALID,18.7115,VALID,86,VALID,0,
2004-10-06, 00:36:00,VALID,920.944,VALID,0,VALID,100,VALID,-0.0679233,VALID,18.7274,VALID,86,VALID,0,
2004-10-06, 00:37:00,VALID,920.944,VALID,0,VALID,100,VALID,-0.101885,VALID,18.7512,VALID,86,VALID,0,
2004-10-06, 00:38:00,VALID,920.942,VALID,0,VALID,100,VALID,-0.0679233,VALID,18.7343,VALID,86,VALID,0.308866,
2004-10-06, 00:39:00,VALID,920.94,VALID,0,VALID,100,VALID,-0.101885,VALID,18.7182,VALID,99,VALID,0.452947,
2004-10-06, 00:40:00,VALID,920.937,VALID,0,VALID,100,VALID,-0.101885,VALID,18.7085,VALID,107,VALID,0.365552,
2004-10-06, 00:41:00,VALID,920.927,VALID,0,VALID,100,VALID,-0.101885,VALID,18.702,VALID,107,VALID,0.390278,
2004-10-06, 00:42:00,VALID,920.923,VALID,0,VALID,100,VALID,-0.101885,VALID,18.6928,VALID,75,VALID,0.493304,
2004-10-06, 00:43:00,VALID,920.922,VALID,0,VALID,100,VALID,-0.118866,VALID,18.6762,VALID,70,VALID,0.668636,
2004-10-06, 00:44:00,VALID,920.918,VALID,0,VALID,100,VALID,-0.101885,VALID,18.6665,VALID,60,VALID,0.523074,
2004-10-06, 00:45:00,VALID,920.915,VALID,0,VALID,100,VALID,-0.101885,VALID,18.6605,VALID,63,VALID,0.80785,
2004-10-06, 00:46:00,VALID,920.91,VALID,0,VALID,100,VALID,-0.101885,VALID,18.6377,VALID,69,VALID,0.989211,
2004-10-06, 00:47:00,VALID,920.901,VALID,0,VALID,100,VALID,-0.0849042,VALID,18.6054,VALID,103,VALID,1.1746,
2004-10-06, 00:48:00,VALID,920.894,VALID,0,VALID,100,VALID,-0.0169808,VALID,18.5459,VALID,112,VALID,1.42485,
2004-10-06, 00:49:00,VALID,920.878,VALID,0,VALID,100,VALID,0.0509425,VALID,18.4936,VALID,119,VALID,0.974382,
2004-10-06, 00:50:00,VALID,920.855,VALID,0,VALID,100,VALID,0.0339617,VALID,18.4906,VALID,120,VALID,0.554883,
2004-10-06, 00:51:00,VALID,920.852,VALID,0,VALID,100,VALID,0.0339617,VALID,18.4846,VALID,113,VALID,1.00056,
2004-10-06, 00:52:00,VALID,920.856,VALID,0,VALID,100,VALID,0.0339617,VALID,18.4553,VALID,125,VALID,0.677973,
2004-10-06, 00:53:00,VALID,920.841,VALID,0,VALID,100,VALID,0,VALID,18.4588,VALID,139,VALID,0.3125,
2004-10-06, 00:54:00,VALID,920.831,VALID,0,VALID,100,VALID,0.0169808,VALID,18.4454,VALID,125,VALID,0.64008,
2004-10-06, 00:55:00,VALID,920.818,VALID,0,VALID,100,VALID,0,VALID,18.4454,VALID,84,VALID,0.637173,
2004-10-06, 00:56:00,VALID,920.807,VALID,0,VALID,100,VALID,0,VALID,18.4419,VALID,71,VALID,0.832031,
2004-10-06, 00:57:00,VALID,920.801,VALID,0,VALID,100,VALID,0.0169808,VALID,18.4431,VALID,80,VALID,0.84811,
2004-10-06, 00:58:00,VALID,920.796,VALID,0,VALID,100,VALID,0,VALID,18.397,VALID,134,VALID,1.45617,
2004-10-06, 00:59:00,VALID,920.776,VALID,0,VALID,100,VALID,0,VALID,18.3562,VALID,122,VALID,1.45117,
2004-10-06, 01:00:00,VALID,920.777,VALID,0,VALID,100,VALID,0.0169808,VALID,18.3038,VALID,130,VALID,1.45331,
2004-10-06, 01:01:00,VALID,920.773,VALID,0,VALID,100,VALID,0.0339617,VALID,18.2877,VALID,122,VALID,1.05203,
2004-10-06, 01:02:00,VALID,920.76,VALID,0,VALID,100,VALID,0.0169808,VALID,18.2782,VALID,106,VALID,1.10494,
2004-10-06, 01:03:00,VALID,920.772,VALID,0,VALID,100,VALID,0,VALID,18.2487,VALID,111,VALID,1.30618,
2004-10-06, 01:04:00,VALID,920.754,VALID,0,VALID,100,VALID,0.0339617,VALID,18.2199,VALID,109,VALID,1.25019,
2004-10-06, 01:05:00,VALID,920.738,VALID,0,VALID,100,VALID,0.0169808,VALID,18.1943,VALID,103,VALID,0.900036,
2004-10-06, 01:06:00,VALID,920.716,VALID,0,VALID,100,VALID,0.0169808,VALID,18.1777,VALID,112,VALID,1.0332,
2004-10-06, 01:07:00,VALID,920.701,VALID,0,VALID,100,VALID,0,VALID,18.1687,VALID,114,VALID,1.12671,
2004-10-06, 01:08:00,VALID,920.683,VALID,0,VALID,100,VALID,-0.0169808,VALID,18.1494,VALID,111,VALID,1.13039,
2004-10-06, 01:09:00,VALID,920.674,VALID,0,VALID,100,VALID,0,VALID,18.1042,VALID,124,VALID,1.09446,
2004-10-06, 01:10:00,VALID,920.666,VALID,0,VALID,100,VALID,0.0339617,VALID,18.0751,VALID,130,VALID,0.688715,
2004-10-06, 01:11:00,VALID,920.649,VALID,0,VALID,100,VALID,0.0339617,VALID,18.0452,VALID,127,VALID,0.622456,
2004-10-06, 01:12:00,VALID,920.651,VALID,0,VALID,100,VALID,0,VALID,18.0555,VALID,116,VALID,0.77689,
2004-10-06, 01:13:00,VALID,920.645,VALID,0,VALID,100,VALID,0,VALID,18.0495,VALID,119,VALID,0.454241,
2004-10-06, 01:14:00,VALID,920.646,VALID,0,VALID,100,VALID,0.0169808,VALID,18.0399,VALID,135,VALID,0.835175,
2004-10-06, 01:15:00,VALID,920.639,VALID,0,VALID,100,VALID,0,VALID,18.0369,VALID,151,VALID,0.394336,
2004-10-06, 01:16:00,VALID,920.622,VALID,0,VALID,100,VALID,0.0339617,VALID,18.0267,VALID,160,VALID,0,
2004-10-06, 01:17:00,VALID,920.6,VALID,0,VALID,100,VALID,0.0169808,VALID,18.0173,VALID,160,VALID,0,
2004-10-06, 01:18:00,VALID,920.573,VALID,0,VALID,100,VALID,-0.0849042,VALID,18.005,VALID,130,VALID,0.553052,
2004-10-06, 01:19:00,VALID,920.555,VALID,0,VALID,100,VALID,-0.101885,VALID,17.9963,VALID,154,VALID,0.824591,
2004-10-06, 01:20:00,VALID,920.548,VALID,0,VALID,100,VALID,-0.101885,VALID,17.9635,VALID,170,VALID,0.353609,
2004-10-06, 01:21:00,VALID,920.55,VALID,0,VALID,100,VALID,-0.0509425,VALID,17.9412,VALID,168,VALID,0.108574,
2004-10-06, 01:22:00,VALID,920.531,VALID,0,VALID,100,VALID,-0.0509425,VALID,17.9248,VALID,151,VALID,0.455256,
2004-10-06, 01:23:00,VALID,920.515,VALID,0,VALID,100,VALID,-0.101885,VALID,17.9091,VALID,136,VALID,0.425223,
2004-10-06, 01:24:00,VALID,920.507,VALID,0,VALID,100,VALID,-0.101885,VALID,17.8736,VALID,136,VALID,0.76883,
2004-10-06, 01:25:00,VALID,920.507,VALID,0,VALID,100,VALID,-0.101885,VALID,17.8381,VALID,133,VALID,0.954687,
2004-10-06, 01:26:00,VALID,920.512,VALID,0,VALID,100,VALID,-0.101885,VALID,17.8086,VALID,133,VALID,0.733665,
2004-10-06, 01:27:00,VALID,920.495,VALID,0,VALID,100,VALID,-0.101885,VALID,17.7892,VALID,133,VALID,0.366815,
2004-10-06, 01:28:00,VALID,920.51,VALID,0,VALID,100,VALID,-0.101885,VALID,17.7837,VALID,134,VALID,0.818859,
2004-10-06, 01:29:00,VALID,920.507,VALID,0,VALID,100,VALID,-0.101885,VALID,17.7643,VALID,129,VALID,1.23996,
2004-10-06, 01:30:00,VALID,920.497,VALID,0,VALID,100,VALID,-0.118866,VALID,17.7286,VALID,115,VALID,0.84426,
2004-10-06, 01:31:00,VALID,920.486,VALID,0,VALID,100,VALID,-0.0849042,VALID,17.6993,VALID,127,VALID,0.825036,
2004-10-06, 01:32:00,VALID,920.477,VALID,0,VALID,100,VALID,-0.101885,VALID,17.6898,VALID,132,VALID,0.819222,
2004-10-06, 01:33:00,VALID,920.459,VALID,0,VALID,100,VALID,-0.0169808,VALID,17.6694,VALID,128,VALID,0.766369,
2004-10-06, 01:34:00,VALID,920.436,VALID,0,VALID,100,VALID,0,VALID,17.6597,VALID,146,VALID,0.795422,
2004-10-06, 01:35:00,VALID,920.424,VALID,0,VALID,100,VALID,0,VALID,17.6302,VALID,84,VALID,0.367188,
2004-10-06, 01:36:00,VALID,920.401,VALID,0,VALID,100,VALID,-0.0339617,VALID,17.6147,VALID,120,VALID,0.755269,
2004-10-06, 01:37:00,VALID,920.376,VALID,0,VALID,100,VALID,0,VALID,17.599,VALID,111,VALID,0.742006,
2004-10-06, 01:38:00,VALID,920.346,VALID,0,VALID,100,VALID,0,VALID,17.547,VALID,120,VALID,0.709985,
2004-10-06, 01:39:00,VALID,920.334,VALID,0,VALID,100,VALID,-0.0169808,VALID,17.5246,VALID,137,VALID,0.60174,
2004-10-06, 01:40:00,VALID,920.335,VALID,0,VALID,100,VALID,0,VALID,17.5048,VALID,130,VALID,0.52077,
2004-10-06, 01:41:00,VALID,920.355,VALID,0,VALID,100,VALID,0,VALID,17.4988,VALID,123,VALID,0.280556,
2004-10-06, 01:42:00,VALID,920.356,VALID,0,VALID,100,VALID,0,VALID,17.4527,VALID,116,VALID,0.669212,
2004-10-06, 01:43:00,VALID,920.356,VALID,0,VALID,100,VALID,0,VALID,17.437,VALID,101,VALID,0.361471,
2004-10-06, 01:44:00,VALID,920.353,VALID,0,VALID,100,VALID,0,VALID,17.4536,VALID,144,VALID,0.363477,
2004-10-06, 01:45:00,VALID,920.335,VALID,0,VALID,100,VALID,0,VALID,17.4568,VALID,99,VALID,0.59003,
2004-10-06, 01:46:00,VALID,920.324,VALID,0,VALID,100,VALID,-0.0169808,VALID,17.4435,VALID,129,VALID,0.515214,
2004-10-06, 01:47:00,VALID,920.304,VALID,0,VALID,100,VALID,-0.0339617,VALID,17.4181,VALID,122,VALID,0.586496,
2004-10-06, 01:48:00,VALID,920.288,VALID,0,VALID,100,VALID,-0.0169808,VALID,17.3987,VALID,112,VALID,0.944404,
2004-10-06, 01:49:00,VALID,920.254,VALID,0,VALID,100,VALID,0,VALID,17.3929,VALID,109,VALID,0.818182,
2004-10-06, 01:50:00,VALID,920.236,VALID,0,VALID,100,VALID,-0.0169808,VALID,17.3664,VALID,116,VALID,0.541295,
2004-10-06, 01:51:00,VALID,920.215,VALID,0,VALID,100,VALID,0,VALID,17.3469,VALID,106,VALID,0.428977,
2004-10-06, 01:52:00,VALID,920.198,VALID,0,VALID,100,VALID,0,VALID,17.3153,VALID,89,VALID,0.595465,
2004-10-06, 01:53:00,VALID,920.188,VALID,0,VALID,100,VALID,0,VALID,17.2666,VALID,102,VALID,0.733665,
2004-10-06, 01:54:00,VALID,920.176,VALID,0,VALID,100,VALID,0,VALID,17.2406,VALID,121,VALID,1.04462,
2004-10-06, 01:55:00,VALID,920.171,VALID,0,VALID,100,VALID,-0.0169808,VALID,17.244,VALID,124,VALID,0.744606,
2004-10-06, 01:56:00,VALID,920.162,VALID,0,VALID,100,VALID,0,VALID,17.2408,VALID,128,VALID,0.836124,
2004-10-06, 01:57:00,VALID,920.148,VALID,0,VALID,100,VALID,-0.0169808,VALID,17.2081,VALID,125,VALID,0.843006,
2004-10-06, 01:58:00,VALID,920.147,VALID,0,VALID,100,VALID,0,VALID,17.218,VALID,115,VALID,0.669876,
2004-10-06, 01:59:00,VALID,920.137,VALID,0,VALID,100,VALID,0,VALID,17.1763,VALID,119,VALID,0.768643,
2004-10-06, 02:00:00,VALID,920.126,VALID,0,VALID,100,VALID,-0.0169808,VALID,17.1668,VALID,120,VALID,0.650618,
2004-10-06, 02:01:00,VALID,920.124,VALID,0,VALID,100,VALID,-0.0169808,VALID,17.1309,VALID,129,VALID,0.760938,
2004-10-06, 02:02:00,VALID,920.114,VALID,0,VALID,100,VALID,0,VALID,17.115,VALID,125,VALID,0.841442,
2004-10-06, 02:03:00,VALID,920.108,VALID,0,VALID,100,VALID,0,VALID,17.1154,VALID,104,VALID,0.910528,
2004-10-06, 02:04:00,VALID,920.086,VALID,0,VALID,100,VALID,0.0169808,VALID,17.0956,VALID,91,VALID,0.746007,
2004-10-06, 02:05:00,VALID,920.06,VALID,0,VALID,100,VALID,0,VALID,17.0541,VALID,82,VALID,0.785792,
2004-10-06, 02:06:00,VALID,920.029,VALID,0,VALID,100,VALID,0,VALID,17.0287,VALID,86,VALID,0.790365,
2004-10-06, 02:07:00,VALID,920.002,VALID,0,VALID,100,VALID,-0.0169808,VALID,16.9988,VALID,76,VALID,0.566592,
2004-10-06, 02:08:00,VALID,919.996,VALID,0,VALID,100,VALID,-0.0169808,VALID,16.9833,VALID,104,VALID,0.961846,
2004-10-06, 02:09:00,VALID,919.979,VALID,0,VALID,100,VALID,0,VALID,16.9573,VALID,118,VALID,1.14215,
2004-10-06, 02:10:00,VALID,919.976,VALID,0,VALID,100,VALID,-0.0339617,VALID,16.9377,VALID,128,VALID,1.15252,
2004-10-06, 02:11:00,VALID,919.967,VALID,0,VALID,100,VALID,0,VALID,16.9287,VALID,113,VALID,0.935404,
2004-10-06, 02:12:00,VALID,919.953,VALID,0,VALID,100,VALID,-0.0169808,VALID,16.8994,VALID,106,VALID,0.867733,
2004-10-06, 02:13:00,VALID,919.928,VALID,0,VALID,100,VALID,0,VALID,16.8639,VALID,112,VALID,1.11947,
2004-10-06, 02:14:00,VALID,919.918,VALID,0,VALID,100,VALID,-0.0169808,VALID,16.8542,VALID,109,VALID,1.10883,
2004-10-06, 02:15:00,VALID,919.919,VALID,0,VALID,100,VALID,-0.0169808,VALID,16.8546,VALID,98,VALID,1.01582,
2004-10-06, 02:16:00,VALID,919.917,VALID,0,VALID,100,VALID,-0.0339617,VALID,16.8575,VALID,111,VALID,1.27362,
2004-10-06, 02:17:00,VALID,919.933,VALID,0,VALID,100,VALID,-0.0169808,VALID,16.8605,VALID,120,VALID,1.3412,
2004-10-06, 02:18:00,VALID,919.927,VALID,0,VALID,100,VALID,-0.135847,VALID,16.8716,VALID,127,VALID,1.11496,
2004-10-06, 02:19:00,VALID,919.92,VALID,0,VALID,99.9941,VALID,-0.101885,VALID,16.8751,VALID,130,VALID,0.991629,
2004-10-06, 02:20:00,VALID,919.913,VALID,0,VALID,99.9634,VALID,-0.0849042,VALID,16.865,VALID,134,VALID,1.16914,
2004-10-06, 02:21:00,VALID,919.911,VALID,0,VALID,99.939,VALID,-0.101885,VALID,16.8946,VALID,125,VALID,1.01781,
2004-10-06, 02:22:00,VALID,919.893,VALID,0,VALID,99.8451,VALID,-0.135847,VALID,16.8914,VALID,113,VALID,0.97603,
2004-10-06, 02:23:00,VALID,919.897,VALID,0,VALID,99.8744,VALID,-0.101885,VALID,16.8884,VALID,104,VALID,1.01711,
2004-10-06, 02:24:00,VALID,919.893,VALID,0,VALID,99.9392,VALID,-0.101885,VALID,16.8946,VALID,103,VALID,0.976749,
2004-10-06, 02:25:00,VALID,919.888,VALID,0,VALID,99.9278,VALID,-0.118866,VALID,16.8979,VALID,106,VALID,0.932049,
2004-10-06, 02:26:00,VALID,919.88,VALID,0,VALID,99.7981,VALID,-0.118866,VALID,16.8979,VALID,99,VALID,1.03034,
2004-10-06, 02:27:00,VALID,919.865,VALID,0,VALID,99.6073,VALID,-0.135847,VALID,16.8921,VALID,107,VALID,0.96439,
2004-10-06, 02:28:00,VALID,919.874,VALID,0,VALID,99.3708,VALID,-0.135847,VALID,16.8822,VALID,119,VALID,0.969658,
2004-10-06, 02:29:00,VALID,919.887,VALID,0,VALID,99.1483,VALID,-0.135847,VALID,16.8658,VALID,123,VALID,0.951823,
2004-10-06, 02:30:00,VALID,919.878,VALID,0,VALID,98.9308,VALID,-0.152827,VALID,16.8598,VALID,123,VALID,0.781432,
2004-10-06, 02:31:00,VALID,919.877,VALID,0,VALID,98.7032,VALID,-0.135847,VALID,16.8529,VALID,118,VALID,0.835392,
2004-10-06, 02:32:00,VALID,919.858,VALID,0,VALID,98.5633,VALID,-0.118866,VALID,16.8368,VALID,103,VALID,0.745739,
2004-10-06, 02:33:00,VALID,919.849,VALID,0,VALID,98.5214,VALID,-0.0679233,VALID,16.8224,VALID,98,VALID,0.88058,
2004-10-06, 02:34:00,VALID,919.849,VALID,0,VALID,98.4654,VALID,-0.0509425,VALID,16.8424,VALID,113,VALID,0.841667,
2004-10-06, 02:35:00,VALID,919.841,VALID,0,VALID,98.4349,VALID,-0.0679233,VALID,16.8361,VALID,117,VALID,1.11152,
2004-10-06, 02:36:00,VALID,919.842,VALID,0,VALID,98.3701,VALID,-0.0679233,VALID,16.8198,VALID,118,VALID,0.816883,
2004-10-06, 02:37:00,VALID,919.843,VALID,0,VALID,98.3154,VALID,-0.0509425,VALID,16.7871,VALID,106,VALID,0.844105,
2004-10-06, 02:38:00,VALID,919.85,VALID,0,VALID,98.5608,VALID,-0.0339617,VALID,16.7679,VALID,106,VALID,0.978468,
2004-10-06, 02:39:00,VALID,919.85,VALID,0,VALID,98.6346,VALID,-0.0509425,VALID,16.7679,VALID,105,VALID,0.920573,
2004-10-06, 02:40:00,VALID,919.852,VALID,0,VALID,98.6587,VALID,-0.0339617,VALID,16.7774,VALID,104,VALID,0.889672,
2004-10-06, 02:41:00,VALID,919.855,VALID,0,VALID,98.632,VALID,-0.0509425,VALID,16.8105,VALID,110,VALID,1.04985,
2004-10-06, 02:42:00,VALID,919.855,VALID,0,VALID,98.4731,VALID,-0.0679233,VALID,16.797,VALID,118,VALID,1.04084,
2004-10-06, 02:43:00,VALID,919.858,VALID,0,VALID,98.4336,VALID,-0.0679233,VALID,16.8138,VALID,120,VALID,0.888317,
2004-10-06, 02:44:00,VALID,919.857,VALID,0,VALID,98.5379,VALID,-0.0169808,VALID,16.794,VALID,110,VALID,0.860328,
2004-10-06, 02:45:00,VALID,919.847,VALID,0,VALID,98.6676,VALID,-0.0339617,VALID,16.7972,VALID,102,VALID,0.818309,
2004-10-06, 02:46:00,VALID,919.859,VALID,0,VALID,98.8584,VALID,-0.0339617,VALID,16.7907,VALID,102,VALID,0.892045,
2004-10-06, 02:47:00,VALID,919.852,VALID,0,VALID,98.927,VALID,0.0679233,VALID,16.7994,VALID,108,VALID,0.840625,
2004-10-06, 02:48:00,VALID,919.852,VALID,0,VALID,98.8736,VALID,-0.0169808,VALID,16.7944,VALID,122,VALID,0.815104,
2004-10-06, 02:49:00,VALID,919.835,VALID,0,VALID,98.8278,VALID,-0.0509425,VALID,16.7486,VALID,119,VALID,0.685213,
2004-10-06, 02:50:00,VALID,919.814,VALID,0,VALID,98.8215,VALID,-0.0339617,VALID,16.7135,VALID,121,VALID,0.728646,
2004-10-06, 02:51:00,VALID,919.813,VALID,0,VALID,98.8812,VALID,-0.0509425,VALID,16.6716,VALID,110,VALID,0.708333,
2004-10-06, 02:52:00,VALID,919.8,VALID,0,VALID,99.0313,VALID,-0.0509425,VALID,16.6391,VALID,99,VALID,0.847486,
2004-10-06, 02:53:00,VALID,919.78,VALID,0,VALID,99.4585,VALID,-0.101885,VALID,16.6423,VALID,99,VALID,0.992378,
2004-10-06, 02:54:00,VALID,919.773,VALID,0,VALID,99.5514,VALID,-0.0509425,VALID,16.6714,VALID,98,VALID,0.871626,
2004-10-06, 02:55:00,VALID,919.792,VALID,0,VALID,99.3886,VALID,-0.0679233,VALID,16.6978,VALID,103,VALID,0.6121,
2004-10-06, 02:56:00,VALID,919.784,VALID,0,VALID,99.4204,VALID,-0.0339617,VALID,16.6875,VALID,112,VALID,0.924361,
2004-10-06, 02:57:00,VALID,919.791,VALID,0,VALID,99.4293,VALID,-0.0509425,VALID,16.6913,VALID,114,VALID,0.888445,
2004-10-06, 02:58:00,VALID,919.787,VALID,0,VALID,99.6862,VALID,-0.0169808,VALID,16.6877,VALID,117,VALID,1.11682,
2004-10-06, 02:59:00,VALID,919.79,VALID,0,VALID,99.91,VALID,-0.0339617,VALID,16.7071,VALID,114,VALID,1.22994,
2004-10-06, 03:00:00,VALID,919.784,VALID,0,VALID,99.9189,VALID,0,VALID,16.7301,VALID,115,VALID,0.996652,
2004-10-06, 03:01:00,VALID,919.759,VALID,0,VALID,99.7993,VALID,0,VALID,16.7294,VALID,115,VALID,0.883557,
2004-10-06, 03:02:00,VALID,919.744,VALID,0,VALID,99.6429,VALID,-0.0509425,VALID,16.7135,VALID,115,VALID,0.902158,
2004-10-06, 03:03:00,VALID,919.727,VALID,0,VALID,99.6709,VALID,-0.0169808,VALID,16.6972,VALID,115,VALID,1.02422,
2004-10-06, 03:04:00,VALID,919.695,VALID,0,VALID,99.8108,VALID,0.0169808,VALID,16.7103,VALID,115,VALID,1.07994,
2004-10-06, 03:05:00,VALID,919.682,VALID,0,VALID,99.8769,VALID,0,VALID,16.7329,VALID,115,VALID,0.894077,
2004-10-06, 03:06:00,VALID,919.673,VALID,0,VALID,99.6735,VALID,-0.0339617,VALID,16.7266,VALID,121,VALID,0.628089,
2004-10-06, 03:07:00,VALID,919.675,VALID,0,VALID,99.5158,VALID,-0.0169808,VALID,16.6937,VALID,121,VALID,0.380952,
2004-10-06, 03:08:00,VALID,919.669,VALID,0,VALID,99.4509,VALID,0,VALID,16.6814,VALID,124,VALID,0.917383,
2004-10-06, 03:09:00,VALID,919.663,VALID,0,VALID,99.4344,VALID,-0.0509425,VALID,16.6558,VALID,126,VALID,1.08918,
2004-10-06, 03:10:00,VALID,919.653,VALID,0,VALID,99.4751,VALID,-0.0169808,VALID,16.6326,VALID,124,VALID,1.05621,
2004-10-06, 03:11:00,VALID,919.628,VALID,0,VALID,99.69,VALID,0.0169808,VALID,16.6427,VALID,124,VALID,0.854611,
2004-10-06, 03:12:00,VALID,919.625,VALID,0,VALID,99.5616,VALID,-0.0169808,VALID,16.6397,VALID,125,VALID,0.684524,
2004-10-06, 03:13:00,VALID,919.601,VALID,0,VALID,99.2513,VALID,-0.0169808,VALID,16.61,VALID,120,VALID,0.455469,
2004-10-06, 03:14:00,VALID,919.587,VALID,0,VALID,99.0402,VALID,-0.0679233,VALID,16.5524,VALID,104,VALID,0.430596,
2004-10-06, 03:15:00,VALID,919.563,VALID,0,VALID,98.9245,VALID,0,VALID,16.5068,VALID,104,VALID,0.328125,
2004-10-06, 03:16:00,VALID,919.554,VALID,0,VALID,98.8469,VALID,-0.0169808,VALID,16.4715,VALID,104,VALID,0.455788,
2004-10-06, 03:17:00,VALID,919.55,VALID,0,VALID,98.777,VALID,-0.0169808,VALID,16.407,VALID,108,VALID,0.353516,
2004-10-06, 03:18:00,VALID,919.544,VALID,0,VALID,98.707,VALID,-0.0339617,VALID,16.3551,VALID,108,VALID,0.37609,
2004-10-06, 03:19:00,VALID,919.55,VALID,0,VALID,98.9601,VALID,-0.0509425,VALID,16.3237,VALID,133,VALID,0.666667,
2004-10-06, 03:20:00,VALID,919.558,VALID,0,VALID,99.4547,VALID,-0.0339617,VALID,16.3267,VALID,141,VALID,0.708984,
2004-10-06, 03:21:00,VALID,919.576,VALID,0,VALID,99.6747,VALID,-0.0169808,VALID,16.3495,VALID,135,VALID,0.435352,
2004-10-06, 03:22:00,VALID,919.571,VALID,0,VALID,99.0605,VALID,-0.0849042,VALID,16.291,VALID,134,VALID,0.234933,
2004-10-06, 03:23:00,VALID,919.578,VALID,0,VALID,98.4654,VALID,-0.0509425,VALID,16.1783,VALID,134,VALID,0.00639205,
2004-10-06, 03:24:00,VALID,919.581,VALID,0,VALID,98.2556,VALID,-0.0339617,VALID,16.0912,VALID,134,VALID,0.097561,
2004-10-06, 03:25:00,VALID,919.583,VALID,0,VALID,98.0623,VALID,-0.0169808,VALID,15.9879,VALID,85,VALID,0.452415,
2004-10-06, 03:26:00,VALID,919.594,VALID,0,VALID,98.1933,VALID,-0.0169808,VALID,15.9004,VALID,39,VALID,0.40625,
2004-10-06, 03:27:00,VALID,919.572,VALID,0,VALID,98.7439,VALID,-0.0169808,VALID,15.8849,VALID,39,VALID,0.317587,
2004-10-06, 03:28:00,VALID,919.595,VALID,0,VALID,99.0224,VALID,-0.0509425,VALID,15.8784,VALID,39,VALID,0.20434,
2004-10-06, 03:29:00,VALID,919.598,VALID,0,VALID,99.1343,VALID,-0.0169808,VALID,15.8522,VALID,39,VALID,0.29154,
2004-10-06, 03:30:00,VALID,919.613,VALID,0,VALID,99.6404,VALID,-0.0339617,VALID,15.8815,VALID,39,VALID,0.346484,
2004-10-06, 03:31:00,VALID,919.622,VALID,0,VALID,99.7065,VALID,-0.0339617,VALID,15.8976,VALID,61,VALID,0.487723,
2004-10-06, 03:32:00,VALID,919.639,VALID,0,VALID,99.9512,VALID,-0.0339617,VALID,15.9174,VALID,118,VALID,0.689174,
2004-10-06, 03:33:00,VALID,919.67,VALID,0,VALID,100,VALID,-0.0339617,VALID,15.9428,VALID,133,VALID,0.66654,
2004-10-06, 03:34:00,VALID,919.684,VALID,0,VALID,99.9939,VALID,-0.0169808,VALID,15.9623,VALID,133,VALID,0.564024,
2004-10-06, 03:35:00,VALID,919.698,VALID,0,VALID,99.8591,VALID,-0.0169808,VALID,15.943,VALID,133,VALID,0.602431,
2004-10-06, 03:36:00,VALID,919.71,VALID,0,VALID,99.8171,VALID,-0.0169808,VALID,15.9208,VALID,133,VALID,0.603051,